Stations météo

Publicité
Nancy/Essey, France (7180): Température de l'air & dewpoint: 18.01.2019 11:00:00 - 24.01.2019 11:00:00 (CET)Nancy/Essey, France (7180): Température de l'air 5cm: 18.01.2019 11:00:00 - 24.01.2019 11:00:00 (CET)Nancy/Essey, France (7180): Température de l'air -20cm & Température de l'air -100cm: 18.01.2019 11:00:00 - 24.01.2019 11:00:00 (CET)Nancy/Essey, France (7180): Vitesse du vent & gusts: 18.01.2019 11:00:00 - 24.01.2019 11:00:00 (CET)Nancy/Essey, France (7180): Direction du vent: 18.01.2019 11:00:00 - 24.01.2019 11:00:00 (CET)Nancy/Essey, France (7180): reduced air pressure: 18.01.2019 11:00:00 - 24.01.2019 11:00:00 (CET)Nancy/Essey, France (7180): visibility: 18.01.2019 11:00:00 - 24.01.2019 11:00:00 (CET)Nancy/Essey, France (7180): Ensoleillement: 18.01.2019 11:00:00 - 24.01.2019 11:00:00 (CET)Nancy/Essey, France (7180): Quantités de précipitations: 18.01.2019 11:00:00 - 24.01.2019 11:00:00 (CET)
Date & Time tt [°C] td [°C] tt 5cm [°C] tt -20cm [°C] tt -100cm [°C] ff [km/h] ff [knt] fx [km/h] fx [knt] dd ppp [hPa] vv [km] sd [min] rr [mm]
24.01.2019 11:00:00 -2,4 -7,1 -2,5 2,0 6,7 12 7 20 11 N 1011,9 9 0 0,0
24.01.2019 10:00:00 -2,4 -7,5 -2,5 2,1 6,7 12 7 21 12 N 1011,1 11 0 0,0
24.01.2019 09:00:00 -2,5 -6,3 -2,7 2,0 6,7 8 4 16 9 NNE 1010,4 9 0 0,0
24.01.2019 08:00:00 -2,4 -6,2 -2,7 2,1 6,7 13 7 22 12 NNE 1009,8 9 0 0,0
24.01.2019 07:00:00 -2,3 -5,8 -2,6 2,1 6,7 11 6 24 13 N 1009,1 10 0 0,0
24.01.2019 06:00:00 -2,4 -5,2 -2,6 2,1 6,7 10 5 19 10 N 1008,3 8 0 0,0
24.01.2019 05:00:00 -2,1 -5,3 -2,3 2,1 6,7 9 5 18 10 N 1007,9 9 0 0,0
24.01.2019 04:00:00 -1,9 -4,7 -2,1 2,1 6,7 9 5 15 8 NNE 1007,4 6 0 0,0
24.01.2019 03:00:00 -1,7 -4,7 -2,0 2,0 6,7 8 4 15 8 N 1006,9 6 0 0,0
24.01.2019 02:00:00 -1,7 -4,7 -1,9 2,1 6,7 10 5 14 8 NNE 1006,3 6 0 0,0
24.01.2019 01:00:00 -1,4 -4,4 -1,7 2,1 6,8 8 5 14 8 NE 1005,5 6 0 0,0
24.01.2019 00:00:00 -1,2 -4,4 -1,6 2,0 6,7 5 3 11 6 N 1004,6 6 0 0,0
23.01.2019 23:00:00 -1,1 -4,1 -1,5 2,1 6,8 7 4 18 10 NNE 1004,0 5 0 0,0
23.01.2019 22:00:00 -1,0 -4,2 -1,5 2,1 6,8 9 5 17 9 NNE 1003,3 6 0 0,0
23.01.2019 21:00:00 -0,8 -3,7 -1,2 2,1 6,8 9 5 20 11 N 1002,4 5 0 0,0
23.01.2019 20:00:00 -0,5 -3,2 -0,9 2,0 6,8 10 6 26 14 NNE 1001,6 6 0 0,0
23.01.2019 19:00:00 -0,3 -3,0 -0,7 2,1 6,8 11 6 31 17 NE 1000,8 7 0 0,0
23.01.2019 18:00:00 -0,1 -3,1 -0,4 2,1 6,8 17 9 27 15 NNE 999,9 7 0 0,0
23.01.2019 17:00:00 0,0 -2,2 -0,2 2,1 6,8 19 11 27 14 NNE 998,9 6 0 0,0
23.01.2019 16:00:00 0,3 -1,8 0,2 2,1 6,8 12 7 20 11 NNE 998,0 6 0 0,0
23.01.2019 15:00:00 0,3 -1,9 0,5 2,1 6,8 12 6 22 12 NE 997,4 6 0 0,0
23.01.2019 14:00:00 0,3 -1,8 0,4 2,1 6,8 11 6 20 11 NE 996,8 6 0 0,0
23.01.2019 13:00:00 0,4 -1,5 0,3 2,1 6,8 11 6 22 12 ENE 996,6 6 0 0,0
23.01.2019 12:00:00 0,4 -0,9 0,4 2,1 6,9 10 5 14 8 E 996,5 3,0 0 0,0
23.01.2019 11:00:00 0,3 -1,1 0,2 2,1 6,8 8 5 16 9 E 996,6 2,4 0 0,0
23.01.2019 10:00:00 0,0 -1,3 -0,5 2,1 6,9 9 5 16 9 SE 996,7 5 0 0,0
23.01.2019 09:00:00 -0,5 -1,5 -0,8 2,1 6,9 8 5 17 9 ESE 996,7 3,6 0 0,0
23.01.2019 08:00:00 -0,6 -1,7 -0,9 2,1 6,9 10 6 16 9 ESE 996,7 4,6 0 0,0
23.01.2019 07:00:00 -0,7 -2,1 -1,0 2,1 6,9 9 5 15 8 SSE 997,0 8 0 0,0
23.01.2019 06:00:00 -0,8 -2,1 -1,3 2,1 6,9 7 4 16 8 SSE 997,7 4,5 0 0,0
23.01.2019 05:00:00 -0,9 -2,0 -1,2 2,1 6,9 7 4 15 8 S 998,2 4,9 0 0,0
23.01.2019 04:00:00 -1,0 -2,4 -1,3 2,1 6,9 6 4 13 7 S 998,9 6 0 0,0
23.01.2019 03:00:00 -1,2 -2,6 -1,4 2,1 6,9 9 5 14 7 SE 999,8 7 0 0,0
23.01.2019 02:00:00 -1,1 -2,8 -1,5 2,1 6,9 4 2 12 6 S 1000,5 8 0 0,0
23.01.2019 01:00:00 -1,3 -3,0 -1,5 2,1 6,9 5 3 13 7 S 1001,3 9 0 0,0
23.01.2019 00:00:00 -1,4 -3,0 -1,9 2,1 7,0 8 4 15 8 S 1002,0 8 0 0,0
22.01.2019 23:00:00 -1,8 -3,1 -2,0 2,2 7,0 5 3 13 7 SE 1002,9 6 0 0,2
22.01.2019 22:00:00 -1,8 -2,8 -2,0 2,1 6,9 6 4 16 9 S 1003,6 1,5 0 0,4
22.01.2019 21:00:00 -1,7 -3,3 -1,8 2,2 7,0 9 5 16 8 S 1004,1 1,8 0 0,0
22.01.2019 20:00:00 -1,3 -4,0 -1,6 2,2 7,0 9 5 18 10 S 1004,8 13 0 0,0
22.01.2019 19:00:00 -1,3 -4,0 -1,5 2,2 7,0 8 5 16 9 S 1005,3 9 0 0,0
22.01.2019 18:00:00 -1,3 -4,5 -2,0 2,2 7,0 10 5 23 12 SSE 1005,9 15 0 0,0
22.01.2019 17:00:00 -0,9 -4,3 -1,4 2,2 7,0 13 7 26 14 S 1006,2 15 34 0,0
22.01.2019 16:00:00 -0,5 -4,4 -0,3 2,2 7,0 17 9 29 16 S 1006,8 16 0 0,0
22.01.2019 15:00:00 -0,3 -4,4 0,2 2,3 7,0 17 9 31 17 S 1007,7 17 2 0,0
22.01.2019 14:00:00 -0,5 -4,4 0,5 2,3 7,0 20 11 32 17 S 1008,8 16 0 0,0
22.01.2019 13:00:00 -0,5 -4,2 0,2 2,3 7,0 19 10 35 19 S 1010,1 17 15 0,0
22.01.2019 12:00:00 -1,0 -4,4 -1,7 2,3 7,0 17 9 34 19 S 1011,5 15 0 0,0
22.01.2019 11:00:00 -1,5 -4,2 -2,4 2,3 7,0 13 7 34 18 S 1012,3 14 0 0,0
22.01.2019 10:00:00 -2,0 -4,3 -3,7 2,3 7,1 17 9 28 15 S 1013,2 11 0 0,0
22.01.2019 09:00:00 -3,9 -5,2 -4,6 2,3 7,1 4 2 9 5 SE 1014,2 3,6 0 0,0
22.01.2019 08:00:00 -4,6 -5,8 -5,1 2,4 7,1 3 2 9 5 E 1014,9 3,3 0 0,0
22.01.2019 07:00:00 -5,1 -6,1 -5,2 2,4 7,0 6 4 10 6 ESE 1015,5 2,4 0 0,0
22.01.2019 06:00:00 -5,0 -6,0 -5,1 2,4 7,1 7 4 9 5 ESE 1016,0 2,0 0 0,0
22.01.2019 05:00:00 -4,8 -5,6 -5,4 2,4 7,1 4 2 9 5 NW 1017,1 2,4 0 0,0
22.01.2019 04:00:00 -5,8 -6,6 -7,7 2,5 7,1 2 1 5 3 WNW 1017,9 2,1 0 0,0
22.01.2019 03:00:00 -6,7 -7,6 -11,4 2,5 7,1 4 2 13 7 NW 1019,1 1,7 0 0,0
22.01.2019 02:00:00 -8,6 -9,7 -11,4 2,5 7,1 4 2 9 5 ESE 1020,0 2,1 0 0,0
22.01.2019 01:00:00 -8,2 -9,4 -10,9 2,5 7,1 2 1 4 2 ESE 1020,9 1,9 0 0,0
22.01.2019 00:00:00 -7,9 -8,8 -10,7 2,5 7,1 3 2 5 3 ESE 1021,2 2,0 0 0,0
21.01.2019 23:00:00 -7,5 -8,6 -10,1 2,6 7,2 5 3 7 4 ESE 1021,7 2,2 0 0,0
21.01.2019 22:00:00 -6,9 -7,8 -9,8 2,6 7,1 2 1 8 4 NNE 1022,0 2,0 0 0,0
21.01.2019 21:00:00 -6,8 -8,0 -9,7 2,6 7,2 6 4 8 5 ESE 1022,3 2,5 0 0,0
21.01.2019 20:00:00 -6,1 -7,3 -9,2 2,6 7,2 1 0 6 3 ESE 1022,6 2,4 0 0,0
21.01.2019 19:00:00 -4,8 -6,3 -7,6 2,6 7,2 1 1 6 3 ESE 1022,3 3,5 0 0,0
21.01.2019 18:00:00 -4,0 -5,5 -6,5 2,7 7,2 4 2 10 6 SE 1022,3 4,3 0 0,0
21.01.2019 17:00:00 -3,2 -5,5 -4,6 2,6 7,2 10 5 13 7 NE 1022,4 5 39 0,0
21.01.2019 16:00:00 -1,4 -4,7 -0,6 2,7 7,2 7 4 18 10 ENE 1021,9 6 60 0,0
21.01.2019 15:00:00 -1,0 -4,5 1,2 2,7 7,2 12 6 23 12 NE 1022,3 7 60 0,0
21.01.2019 14:00:00 -0,7 -4,2 1,8 2,7 7,2 14 8 21 11 NE 1022,7 7 60 0,0
21.01.2019 13:00:00 -0,9 -4,4 2,4 2,7 7,2 9 5 19 10 N 1023,2 7 58 0,0
21.01.2019 12:00:00 -2,0 -5,2 0,8 2,8 7,2 9 5 16 9 N 1023,4 8 60 0,0
21.01.2019 11:00:00 -2,9 -5,9 -0,3 2,8 7,2 11 6 19 11 N 1023,7 7 60 0,0
21.01.2019 10:00:00 -3,4 -6,0 -4,0 2,8 7,2 7 4 12 7 N 1023,5 7 60 0,0
21.01.2019 09:00:00 -4,9 -6,7 -7,2 2,8 7,3 4 2 10 5 NNW 1023,4 6 15 0,0
21.01.2019 08:00:00 -5,4 -6,9 -7,5 2,8 7,3 4 2 11 6 N 1022,9 6 0 0,0
21.01.2019 07:00:00 -4,6 -6,3 -6,7 2,8 7,3 7 4 14 8 N 1022,3 6 0 0,0
21.01.2019 06:00:00 -4,7 -6,2 -6,3 2,9 7,3 4 2 9 5 NNW 1021,9 5 0 0,0
21.01.2019 05:00:00 -4,3 -6,3 -7,2 2,9 7,3 7 4 11 6 NNW 1021,7 7 0 0,0
21.01.2019 04:00:00 -4,4 -6,1 -7,4 2,9 7,3 3 2 11 6 N 1021,5 6 0 0,0
21.01.2019 03:00:00 -3,4 -5,7 -5,2 2,9 7,3 4 2 17 9 N 1021,5 8 0 0,0
21.01.2019 02:00:00 -3,1 -5,4 -4,8 2,9 7,3 9 5 16 9 N 1021,0 7 0 0,0
21.01.2019 01:00:00 -3,0 -5,0 -4,2 2,9 7,3 8 5 15 8 N 1020,9 6 0 0,0
21.01.2019 00:00:00 -2,3 -4,3 -3,4 2,9 7,4 10 5 15 8 NNE 1020,6 6 0 0,0
20.01.2019 23:00:00 -1,7 -3,7 -2,9 2,9 7,3 8 4 13 7 N 1020,0 7 0 0,0
20.01.2019 22:00:00 -0,8 -3,2 -1,6 2,9 7,4 8 4 14 8 N 1019,3 7 0 0,0
20.01.2019 21:00:00 -0,1 -2,8 -0,6 2,9 7,4 9 5 16 8 NNE 1018,8 7 0 0,0
20.01.2019 20:00:00 0,0 -2,7 -0,3 2,9 7,4 11 6 17 9 NE 1018,4 7 0 0,0
20.01.2019 19:00:00 -0,1 -2,6 -0,3 2,9 7,4 11 6 22 12 NE 1017,9 7 0 0,0
20.01.2019 18:00:00 -0,1 -2,5 -0,3 2,9 7,4 11 6 20 11 NE 1017,3 7 0 0,0
20.01.2019 17:00:00 0,0 -2,5 -0,1 2,9 7,4 10 5 16 9 NE 1016,7 7 0 0,0
20.01.2019 16:00:00 0,2 -2,3 0,5 3,0 7,4 11 6 17 9 NNE 1016,1 7 0 0,0
20.01.2019 15:00:00 0,1 -2,4 0,6 3,0 7,4 11 6 17 9 NNE 1015,8 7 0 0,0
20.01.2019 14:00:00 -0,1 -2,6 0,8 3,0 7,4 11 6 17 9 NE 1015,7 7 0 0,0
20.01.2019 13:00:00 0,0 -2,5 0,2 3,0 7,4 10 6 15 8 NE 1015,7 7 0 0,0
20.01.2019 12:00:00 -0,7 -2,8 -0,2 3,0 7,4 9 5 13 7 NE 1015,6 4,4 0 0,0
20.01.2019 11:00:00 -1,3 -2,9 -1,3 3,0 7,4 7 4 16 8 ENE 1015,6 3,7 0 0,0
20.01.2019 10:00:00 -1,8 -3,5 -1,9 3,0 7,4 10 6 15 8 NE 1015,0 4,8 0 0,0
20.01.2019 09:00:00 -2,1 -3,5 -2,2 3,1 7,5 8 4 14 8 NE 1014,6 4,5 0 0,0
20.01.2019 08:00:00 -2,2 -3,5 -2,3 3,1 7,5 9 5 14 8 NE 1013,9 3,9 0 0,0
20.01.2019 07:00:00 -2,2 -3,2 -2,3 3,1 7,4 8 4 14 8 NE 1013,5 2,4 0 0,2
20.01.2019 06:00:00 -2,2 -3,2 -2,2 3,1 7,5 8 4 11 6 NE 1013,4 2,0 0 0,0
20.01.2019 05:00:00 -2,1 -3,1 -2,1 3,1 7,5 6 3 10 5 ENE 1013,5 1,6 0 0,2
20.01.2019 04:00:00 -2,0 -3,1 -2,0 3,1 7,5 8 4 13 7 NE 1013,5 1,6 0 0,2
20.01.2019 03:00:00 -1,8 -3,2 -1,9 3,1 7,5 6 4 9 5 ENE 1013,7 1,7 0 0,0
20.01.2019 02:00:00 -1,4 -3,8 -1,9 3,2 7,5 5 3 8 5 E 1013,5 7 0 0,0
20.01.2019 01:00:00 -1,6 -3,6 -2,0 3,2 7,5 4 2 13 7 E 1013,8 8 0 0,0
20.01.2019 00:00:00 -1,4 -3,4 -1,9 3,3 7,5 9 5 12 6 NE 1013,6 8 0 0,0
19.01.2019 23:00:00 -1,7 -3,4 -2,3 3,3 7,5 5 3 8 5 NE 1013,7 7 0 0,0
19.01.2019 22:00:00 -1,8 -3,7 -4,0 3,3 7,5 5 3 10 5 NE 1013,6 9 0 0,0
19.01.2019 21:00:00 -2,0 -4,0 -4,1 3,3 7,5 5 3 9 5 E 1013,6 10 0 0,0
19.01.2019 20:00:00 -1,7 -3,9 -4,4 3,3 7,5 3 2 16 9 ESE 1013,6 12 0 0,0
19.01.2019 19:00:00 -2,0 -4,8 -5,1 3,4 7,5 2 1 11 6 ENE 1013,7 19 0 0,0
19.01.2019 18:00:00 -2,1 -4,4 -4,6 3,4 7,5 8 4 10 5 ENE 1013,8 15 0 0,0
19.01.2019 17:00:00 0,7 -4,0 -1,0 3,4 7,5 5 3 13 7 E 1013,8 28 44 0,0
19.01.2019 16:00:00 2,1 -3,2 2,4 3,5 7,5 9 5 14 8 E 1013,8 29 60 0,0
19.01.2019 15:00:00 2,1 -3,2 3,3 3,5 7,5 8 4 13 7 ESE 1014,3 17 60 0,0
19.01.2019 14:00:00 2,2 -2,5 2,8 3,6 7,6 4 2 12 7 SE 1015,1 12 60 0,0
19.01.2019 13:00:00 -0,3 -2,4 -0,6 3,6 7,6 6 3 10 5 S 1016,2 6 60 0,0
19.01.2019 12:00:00 -2,9 -3,6 -2,2 3,7 7,5 4 2 9 5 SW 1017,2 0,3 43 0,0
19.01.2019 11:00:00 -3,9 -4,4 -4,2 3,7 7,5 3 1 6 3 ESE 1017,6 0,2 1 0,0
19.01.2019 10:00:00 -5,2 -5,7 -5,9 3,8 7,5 2 1 8 5 SSE 1017,7 0,2 0 0,0
19.01.2019 09:00:00 -6,0 -6,7 -9,2 3,9 7,5 6 3 9 5 S 1017,8 0,2 7 0,0
19.01.2019 08:00:00 -6,5 -7,3 -9,5 3,9 7,5 4 2 8 4 SE 1017,8 4,0 0 0,0
19.01.2019 07:00:00 -6,1 -7,0 -9,3 4,0 7,5 3 1 6 3 SSE 1017,6 4,0 0 0,0
19.01.2019 06:00:00 -6,4 -7,5 -9,4 4,1 7,5 5 3 7 4 E 1017,9 4,4 0 0,0
19.01.2019 05:00:00 -6,4 -7,5 -9,8 4,2 7,6 4 2 6 3 E 1018,2 4,8 0 0,0
19.01.2019 04:00:00 -5,4 -6,4 -8,1 4,2 7,5 4 2 9 5 E 1018,5 6 0 0,0
19.01.2019 03:00:00 -4,9 -5,7 -7,6 4,3 7,5 3 1 7 4 ENE 1018,8 7 0 0,0
19.01.2019 02:00:00 -4,5 -5,3 -7,7 4,4 7,6 3 2 7 4 E 1019,2 6 0 0,0
19.01.2019 01:00:00 -4,6 -5,7 -7,5 4,4 7,5 2 1 8 4 ENE 1019,5 8 0 0,0
19.01.2019 00:00:00 -3,8 -5,2 -6,7 4,5 7,6 6 4 10 5 NE 1019,8 11 0 0,0
18.01.2019 23:00:00 -4,2 -5,6 -6,5 4,5 7,5 8 4 11 6 NE 1019,8 12 0 0,0
18.01.2019 22:00:00 -3,1 -5,1 -5,6 4,6 7,6 8 4 9 5 NE 1019,8 11 0 0,0
18.01.2019 21:00:00 -2,1 -4,1 -4,5 4,7 7,6 9 5 11 6 NE 1019,7 19 0 0,0
18.01.2019 20:00:00 -1,9 -3,6 -4,3 4,7 7,5 5 3 13 7 NE 1019,9 14 0 0,0
18.01.2019 19:00:00 -1,6 -3,5 -4,2 4,7 7,6 6 4 10 5 NE 1020,0 13 0 0,0
18.01.2019 18:00:00 -0,8 -2,7 -3,8 4,7 7,6 7 4 11 6 NE 1020,2 16 0 0,0
18.01.2019 17:00:00 0,9 -2,7 -1,1 4,7 7,6 6 3 9 5 NE 1020,3 40 40 0,0
18.01.2019 16:00:00 2,4 -3,7 2,8 4,6 7,6 3 2 6 4 S 1020,5 45 33 0,0
18.01.2019 15:00:00 2,4 -3,1 3,4 4,6 7,6 1 1 12 7 SE 1020,7 50 22 0,0
18.01.2019 14:00:00 1,9 -3,2 2,8 4,6 7,6 4 2 14 7 N 1021,0 54 0 0,0
18.01.2019 13:00:00 1,6 -2,2 1,9 4,6 7,6 10 5 14 8 ENE 1021,3 44 0 0,0
18.01.2019 12:00:00 1,3 -2,5 1,3 4,7 7,6 7 4 13 7 E 1021,8 46 0 0,0
18.01.2019 11:00:00 1,3 -2,3 1,9 4,7 7,6 4 2 9 5 ENE 1021,9 19 30 0,0

tt = Température de l'air
td = dewpoint
tt 5cm = Température de l'air 5cm
tt -20cm = Température de l'air -20cm
tt -100cm = Température de l'air -100cm
ff = Vitesse du vent
fx = gusts
dd = Direction du vent
ppp = reduced air pressure
vv = visibility
sd = Ensoleillement
rr = Quantités de précipitations

stations d'obs. à proximité